Location: Cabeza Gorda
(40.0667°N, 4.9667°W)
Time: 19:17:27
(UTC+00:00)

ARIANE 6 FM1 Upper Stage - Pass Details

Date: 15 January 2026
Orbit: 522 x 609 km, 62.0° (Epoch: 11 February)

Event Time Altitude Azimuth Distance (km) Brightness Sun altitude
Exits shadow 05:14:36 38° 72° (ENE) 813 3.8 -27.4°
Drops below altitude 10° 05:17:50 10° 121° (ESE) 1,786 6.0 -26.8°
Sets 05:20:09 0° 128° (SE) 2,686 7.0 -26.3°
